Home   Weather   Nordhausen   Past weeks

Flag for Germany Past Weather in Nordhausen, Thuringia, Germany — Yesterday and Last 2 Weeks

Now
32 °F

Clear.


Feels Like: 25 °F
Forecast: 20 / 37 °F
Wind: 8 mph from West

Location: Erfurt-Bindersleben

Current Time: Dec 2, 2016 at 7:20:28 pm

Latest Report: Dec 2, 2016 at 6:50 pm


Visibility: 10 mi

Pressure: 30.18 "Hg

Humidity: 80%

Dew Point: 27 °F

Location of NordhausenLocation

Past Weather in Nordhausen — Graph

°F

Nordhausen Temperature Yesterday

Maximum temperature yesterday: 41 °F (at 10:20 pm)
Minimum temperature yesterday: 34 °F (at 12:20 am)
Average temperature yesterday: 38 °F

High & Low Weather Summary for the Past Weeks

 TemperatureHumidityPressure
High55 °F (Nov 20, 5:50 pm)100% (Nov 18, 11:20 am)30.54 "Hg (Nov 18, 11:20 am)
Low18 °F (Nov 29, 6:20 am)50% (Nov 20, 12:20 pm)29.45 "Hg (Nov 18, 7:20 am)
Average40 °F85%30.02 "Hg
* Reported Nov 17 5:20 pm — Dec 2 5:50 pm, Nordhausen, Weather by CustomWeather, © 2016

Note: Actual official high and low records may vary slightly from our data, if they occured in-between our weather recording intervals... More about our weather records

Advertising

Nordhausen Weather History for the Previous 24 Hours

Scroll right to see more
 ConditionsComfort  
Time TempWeatherWind HumidityBarometerVisibility
5:50 pm
Fri, Dec 2
34 °FClear.9 mph81%30.15 "Hg10 mi
5:20 pm34 °FClear.7 mph75%30.15 "Hg10 mi
4:50 pm34 °FClear.6 mph75%30.15 "Hg10 mi
4:20 pm34 °FClear.7 mph81%30.15 "Hg10 mi
3:50 pm36 °FPassing clouds.7 mph75%30.15 "HgN/A
3:20 pm37 °FPassing clouds.7 mph75%30.15 "HgN/A
2:50 pm39 °FPassing clouds.9 mph70%30.12 "HgN/A
2:20 pm41 °FPassing clouds.8 mph66%30.12 "HgN/A
1:50 pm41 °FPassing clouds.9 mph61%30.12 "HgN/A
1:20 pm41 °FPassing clouds.9 mph57%30.12 "HgN/A
12:50 pm41 °FPassing clouds.10 mph61%30.12 "HgN/A
12:20 pm41 °FPassing clouds.8 mph61%30.12 "HgN/A
11:50 am41 °FPassing clouds.12 mph61%30.12 "HgN/A
11:20 am41 °FPassing clouds.10 mph66%30.12 "HgN/A
10:50 am41 °FPassing clouds.9 mph76%30.12 "HgN/A
10:20 am39 °FScattered clouds.8 mph81%30.09 "HgN/A
9:50 am39 °FPartly sunny.9 mph87%30.09 "HgN/A
9:20 am39 °FPartly sunny.10 mph87%30.07 "HgN/A
8:50 am39 °FPartly sunny.10 mph87%30.07 "HgN/A
8:20 am39 °FLight rain. Broken clouds.17 mph93%30.04 "HgN/A
7:50 am41 °FLight rain. Passing clouds.21 mph93%30.01 "HgN/A
7:20 am41 °FLight rain. Partly cloudy.18 mph100%30.01 "HgN/A
6:50 am41 °FLight rain. Partly cloudy.16 mph100%30.01 "Hg5 mi
6:20 am41 °FPartly cloudy.17 mph100%29.98 "Hg5 mi
5:50 am41 °FMixture of precip. Passing clouds.18 mph100%29.98 "Hg5 mi
5:20 am41 °FMixture of precip. Passing clouds.17 mph100%29.98 "Hg5 mi
4:50 am41 °FDrizzle. Mostly cloudy.20 mph100%29.98 "HgN/A
4:20 am41 °FMixture of precip. Passing clouds.20 mph100%29.98 "Hg5 mi
3:50 am41 °FMixture of precip. Passing clouds.20 mph100%29.98 "Hg4 mi
3:20 am41 °FMixture of precip. Partly cloudy.18 mph100%29.98 "Hg4 mi
2:50 am41 °FMixture of precip. Partly cloudy.17 mph93%29.98 "Hg4 mi
2:20 am41 °FPartly cloudy.17 mph93%29.98 "Hg6 mi
1:50 am41 °FPassing clouds.15 mph93%29.98 "Hg2 mi
1:20 am41 °FPassing clouds.17 mph93%29.98 "Hg3 mi
12:50 am41 °FDrizzle. Mostly cloudy.17 mph93%29.98 "HgN/A
12:20 am41 °FPartly cloudy.18 mph93%30.01 "HgN/A
11:50 pm
Thu, Dec 1
39 °FPassing clouds.15 mph100%30.01 "Hg5 mi
11:20 pm41 °FPartly cloudy.16 mph93%30.01 "HgN/A
10:50 pm41 °FDrizzle. Mostly cloudy.16 mph93%30.01 "HgN/A
10:20 pm41 °FDrizzle. Mostly cloudy.20 mph93%30.01 "HgN/A
9:50 pm39 °FDrizzle. Mostly cloudy.20 mph93%30.04 "HgN/A
9:20 pm39 °FDrizzle. Overcast.22 mph93%30.01 "HgN/A
8:50 pm39 °FDrizzle. Overcast.22 mph93%30.04 "HgN/A
8:20 pm39 °FDrizzle. Overcast.20 mph93%30.04 "HgN/A
7:50 pm39 °FPartly cloudy.20 mph93%30.04 "HgN/A
7:20 pm39 °FPartly cloudy.20 mph93%30.07 "HgN/A
Weather by CustomWeather, © 2016

See weather overviewHow to use our weather pages